Canton, GA

9:26 PM EDT on October 19, 2019 (GMT -0400)
Canton

Weather History for KCNI - August, 2019

Change the Weather History Date:

Thursday, August 29, 2019

  Actual Average (WUND) Record (WUND)
Temperature  
Mean Temperature 73 °F -  
Max Temperature 86 °F - - (-1)
Min Temperature 60 °F - - (-1)
Cooling Degree Days 8    
Growing Degree Days 23 (Base 50)    
Moisture  
Dew Point 56 °F    
Average Humidity 59    
Maximum Humidity 94    
Minimum Humidity 29    
Precipitation  
Precipitation 0.00 in - - ()
Sea Level Pressure  
Sea Level Pressure 30.10 in    
Wind  
Wind Speed 1 mph (SW)    
Max Wind Speed 7 mph    
Max Gust Speed -    
Visibility 10 miles    
Events      
Averages and records for this station are not official NWS values.
T = Trace of Precipitation, MM = Missing Value Source: NWS Daily Summary

Daily Weather History Graph

Daily Weather History Graph

Search for Another Location

Airport or City:

Astronomy

Aug. 29, 2019 Rise Set
Actual Time 7:08 AM EDT 8:07 PM EDT
Civil Twilight 6:42 AM EDT 8:33 PM EDT
Nautical Twilight 6:12 AM EDT 9:04 PM EDT
Astronomical Twilight 5:40 AM EDT 9:35 PM EDT
Moon 5:58 AM EDT (8/29) 8:00 PM EDT (8/29)
Length of Visible Light 13h 50m
Length of Day
12h 59m
Waning Crescent, 1% of the Moon is Illuminated
Aug 29
Waning Crescent
Aug 30
New
Sep 5
First Quarter
Sep 14
Full
Sep 21
Last Quarter

Hourly Weather History & Observations

Time (EDT) Temp. Heat Index Dew Point Humidity Pressure Visibility Wind Dir Wind Speed Gust Speed Precip Events Conditions
12:15 AM 69.8 °F - 60.8 °F 73% 30.07 in 10.0 mi Calm Calm - N/A   Clear
12:35 AM 68.0 °F - 60.8 °F 78% 30.07 in 10.0 mi Calm Calm - N/A   Clear
12:55 AM 68.0 °F - 60.8 °F 78% 30.06 in 10.0 mi Calm Calm - N/A   Clear
1:15 AM 68.0 °F - 60.8 °F 78% 30.06 in 10.0 mi Calm Calm - N/A   Clear
3:15 AM 64.4 °F - 60.8 °F 88% 30.05 in 10.0 mi Calm Calm - N/A   Clear
3:35 AM 64.4 °F - 60.8 °F 88% 30.05 in 10.0 mi Calm Calm - N/A   Clear
3:55 AM 64.4 °F - 60.8 °F 88% 30.04 in 10.0 mi Calm Calm - N/A   Clear
4:15 AM 64.4 °F - 59.0 °F 83% 30.04 in 10.0 mi Calm Calm - N/A   Clear
4:35 AM 64.4 °F - 59.0 °F 83% 30.05 in 10.0 mi Calm Calm - N/A   Clear
4:55 AM 64.4 °F - 59.0 °F 83% 30.05 in 10.0 mi Calm Calm - N/A   Clear
5:15 AM 62.6 °F - 59.0 °F 88% 30.06 in 10.0 mi Calm Calm - N/A   Clear
5:35 AM 62.6 °F - 59.0 °F 88% 30.06 in 10.0 mi Calm Calm - N/A   Clear
5:55 AM 64.4 °F - 57.2 °F 77% 30.06 in 10.0 mi Calm Calm - N/A   Clear
6:15 AM 64.4 °F - 57.2 °F 77% 30.08 in 10.0 mi Calm Calm - N/A   Clear
6:35 AM 64.4 °F - 57.2 °F 77% 30.08 in 10.0 mi Calm Calm - N/A   Clear
6:55 AM 64.4 °F - 57.2 °F 77% 30.08 in 10.0 mi Calm Calm - N/A   Clear
7:15 AM 60.8 °F - 57.2 °F 88% 30.08 in 10.0 mi Calm Calm - N/A   Clear
7:35 AM 62.6 °F - 57.2 °F 82% 30.09 in 10.0 mi Calm Calm - N/A   Clear
7:55 AM 62.6 °F - 57.2 °F 82% 30.10 in 10.0 mi Calm Calm - N/A   Clear
8:15 AM 64.4 °F - 59.0 °F 83% 30.11 in 10.0 mi Calm Calm - N/A   Clear
8:35 AM 66.2 °F - 59.0 °F 78% 30.12 in 10.0 mi Calm Calm - N/A   Clear
8:55 AM 68.0 °F - 59.0 °F 73% 30.12 in 10.0 mi Calm Calm - N/A   Clear
9:15 AM 68.0 °F - 59.0 °F 73% 30.13 in 10.0 mi Calm Calm - N/A   Clear
9:35 AM 69.8 °F - 59.0 °F 68% 30.13 in 10.0 mi Calm Calm - N/A   Clear
9:55 AM 71.6 °F - 59.0 °F 64% 30.14 in 10.0 mi Calm Calm - N/A   Clear
10:15 AM 73.4 °F - 60.8 °F 65% 30.15 in 10.0 mi Calm Calm - N/A   Clear
10:35 AM 73.4 °F - 55.4 °F 53% 30.15 in 10.0 mi NE 3.5 mph - N/A   Clear
10:55 AM 77.0 °F - 55.4 °F 47% 30.15 in 10.0 mi Calm Calm - N/A   Clear
11:15 AM 77.0 °F - 57.2 °F 50% 30.15 in 10.0 mi Calm Calm - N/A   Clear
11:35 AM 77.0 °F - 57.2 °F 50% 30.15 in 10.0 mi Calm Calm - N/A   Clear
11:55 AM 78.8 °F - 53.6 °F 42% 30.15 in 10.0 mi Calm Calm - N/A   Clear
12:35 PM 80.6 °F 80.3 °F 53.6 °F 39% 30.14 in 10.0 mi Calm Calm - N/A   Clear
12:55 PM 80.6 °F 80.3 °F 53.6 °F 39% 30.13 in 10.0 mi ENE 5.8 mph - N/A   Clear
1:15 PM 82.4 °F - 51.8 °F 35% 30.13 in 10.0 mi East 5.8 mph - N/A   Clear
1:35 PM 82.4 °F - 51.8 °F 35% 30.12 in 10.0 mi South 4.6 mph - N/A   Clear
1:55 PM 82.4 °F - 50.0 °F 32% 30.12 in 10.0 mi SSE 6.9 mph - N/A   Clear
2:15 PM 82.4 °F - 50.0 °F 32% 30.12 in 10.0 mi Calm Calm - N/A   Clear
2:55 PM 86.0 °F - 50.0 °F 29% 30.10 in 10.0 mi Calm Calm - N/A   Clear
3:15 PM 86.0 °F - 50.0 °F 29% 30.09 in 10.0 mi Calm Calm - N/A   Clear
3:35 PM 86.0 °F - 50.0 °F 29% 30.09 in 10.0 mi SE 3.5 mph - N/A   Clear
3:55 PM 86.0 °F - 50.0 °F 29% 30.08 in 10.0 mi SE 4.6 mph - N/A   Clear
4:15 PM 86.0 °F - 50.0 °F 29% 30.08 in 10.0 mi SSE 3.5 mph - N/A   Clear
4:35 PM 86.0 °F - 50.0 °F 29% 30.08 in 10.0 mi South 6.9 mph - N/A   Clear
4:55 PM 84.2 °F - 50.0 °F 30% 30.08 in 10.0 mi Calm Calm - N/A   Clear
5:15 PM 84.2 °F 82.8 °F 53.6 °F 35% 30.07 in 10.0 mi Calm Calm - N/A   Scattered Clouds
5:35 PM 84.2 °F 82.8 °F 53.6 °F 35% 30.08 in 10.0 mi Calm Calm - N/A   Scattered Clouds
5:55 PM 84.2 °F - 50.0 °F 30% 30.08 in 10.0 mi WNW 5.8 mph - N/A   Clear
6:15 PM 84.2 °F - 50.0 °F 30% 30.08 in 10.0 mi WNW 3.5 mph - N/A   Clear
6:35 PM 82.4 °F - 51.8 °F 35% 30.08 in 10.0 mi Calm Calm - N/A   Clear
6:55 PM 82.4 °F 81.4 °F 53.6 °F 37% 30.08 in 10.0 mi WNW 3.5 mph - N/A   Clear
7:15 PM 80.6 °F 80.3 °F 53.6 °F 39% 30.08 in 10.0 mi NW 3.5 mph - N/A   Clear
8:15 PM 77.0 °F - 57.2 °F 50% 30.08 in 10.0 mi WNW 3.5 mph - N/A   Clear
8:35 PM 75.2 °F - 55.4 °F 50% 30.08 in 10.0 mi WNW 3.5 mph - N/A   Clear
8:55 PM 73.4 °F - 55.4 °F 53% 30.09 in 10.0 mi West 3.5 mph - N/A   Clear
9:15 PM 71.6 °F - 55.4 °F 57% 30.10 in 10.0 mi Calm Calm - N/A   Clear
9:35 PM 71.6 °F - 55.4 °F 57% 30.10 in 10.0 mi Calm Calm - N/A   Clear
9:55 PM 69.8 °F - 59.0 °F 68% 30.11 in 10.0 mi Calm Calm - N/A   Clear
10:15 PM 69.8 °F - 55.4 °F 60% 30.11 in 10.0 mi Calm Calm - N/A   Clear
10:35 PM 69.8 °F - 55.4 °F 60% 30.12 in 10.0 mi Calm Calm - N/A   Clear
10:55 PM 64.4 °F - 60.8 °F 88% 30.12 in 10.0 mi Calm Calm - N/A   Clear
11:15 PM 68.0 °F - 57.2 °F 68% 30.13 in 10.0 mi Calm Calm - N/A   Clear
11:35 PM 62.6 °F - 60.8 °F 94% 30.13 in 10.0 mi Calm Calm - N/A   Clear
11:55 PM 64.4 °F - 57.2 °F 77% 30.13 in 10.0 mi Calm Calm - N/A   Clear